Year,Month,Day,Hour,Minute,Value (Times are PST for temperature in C)
2017,07,07,00,00,12.30
2017,07,07,00,01,12.30
2017,07,07,00,02,12.30
2017,07,07,00,03,12.30
2017,07,07,00,04,12.30
2017,07,07,00,05,12.30
2017,07,07,00,06,12.30
2017,07,07,00,07,12.30
2017,07,07,00,08,12.30
2017,07,07,00,09,12.20
2017,07,07,00,10,12.20
2017,07,07,00,11,12.20
2017,07,07,00,12,12.20
2017,07,07,00,13,12.20
2017,07,07,00,14,12.20
2017,07,07,00,15,12.20
2017,07,07,00,16,12.20
2017,07,07,00,17,12.20
2017,07,07,00,18,12.20
2017,07,07,00,19,12.10
2017,07,07,00,20,12.10
2017,07,07,00,21,12.10
2017,07,07,00,22,12.10
2017,07,07,00,23,12.10
2017,07,07,00,24,12.10
2017,07,07,00,25,12.10
2017,07,07,00,26,12.10
2017,07,07,00,27,12.10
2017,07,07,00,28,12.10
2017,07,07,00,29,12.10
2017,07,07,00,30,12.00
2017,07,07,00,31,12.00
2017,07,07,00,32,12.00
2017,07,07,00,33,12.00
2017,07,07,00,34,12.00
2017,07,07,00,35,12.00
2017,07,07,00,36,12.00
2017,07,07,00,37,12.00
2017,07,07,00,38,12.00
2017,07,07,00,39,12.00
2017,07,07,00,40,12.00
2017,07,07,00,41,12.00
2017,07,07,00,42,12.00
2017,07,07,00,43,12.00
2017,07,07,00,44,12.00
2017,07,07,00,45,12.00
2017,07,07,00,46,12.00
2017,07,07,00,47,11.90
2017,07,07,00,48,11.90
2017,07,07,00,49,11.90
2017,07,07,00,50,11.90
2017,07,07,00,51,11.90
2017,07,07,00,52,11.80
2017,07,07,00,53,11.80
2017,07,07,00,54,11.80
2017,07,07,00,55,11.80
2017,07,07,00,56,11.80
2017,07,07,00,57,11.80
2017,07,07,00,58,11.80
2017,07,07,00,59,11.80
2017,07,07,01,00,11.80
2017,07,07,01,01,11.80
2017,07,07,01,02,11.80
2017,07,07,01,03,11.80
2017,07,07,01,04,11.70
2017,07,07,01,05,11.70
2017,07,07,01,06,11.70
2017,07,07,01,07,11.70
2017,07,07,01,08,11.70
2017,07,07,01,09,11.70
2017,07,07,01,10,11.60
2017,07,07,01,11,11.60
2017,07,07,01,12,11.60
2017,07,07,01,13,11.60
2017,07,07,01,14,11.60
2017,07,07,01,15,11.60
2017,07,07,01,16,11.60
2017,07,07,01,17,11.60
2017,07,07,01,18,11.60
2017,07,07,01,19,11.60
2017,07,07,01,20,11.60
2017,07,07,01,21,11.60
2017,07,07,01,22,11.70
2017,07,07,01,23,11.70
2017,07,07,01,24,11.70
2017,07,07,01,25,11.70
2017,07,07,01,26,11.70
2017,07,07,01,27,11.70
2017,07,07,01,28,11.70
2017,07,07,01,29,11.70
2017,07,07,01,30,11.70
2017,07,07,01,31,11.70
2017,07,07,01,32,11.70
2017,07,07,01,33,11.70
2017,07,07,01,34,11.70
2017,07,07,01,35,11.60
2017,07,07,01,36,11.60
2017,07,07,01,37,11.60
2017,07,07,01,38,11.60
2017,07,07,01,39,11.60
2017,07,07,01,40,11.50
2017,07,07,01,41,11.50
2017,07,07,01,42,11.50
2017,07,07,01,43,11.50
2017,07,07,01,44,11.50
2017,07,07,01,45,11.40
2017,07,07,01,46,11.40
2017,07,07,01,47,11.50
2017,07,07,01,48,11.50
2017,07,07,01,49,11.50
2017,07,07,01,50,11.50
2017,07,07,01,51,11.50
2017,07,07,01,52,11.50
2017,07,07,01,53,11.40
2017,07,07,01,54,11.40
2017,07,07,01,55,11.40
2017,07,07,01,56,11.40
2017,07,07,01,57,11.40
2017,07,07,01,58,11.40
2017,07,07,01,59,11.40
2017,07,07,02,00,11.30
2017,07,07,02,01,11.30
2017,07,07,02,02,11.30
2017,07,07,02,03,11.30
2017,07,07,02,04,11.30
2017,07,07,02,05,11.30
2017,07,07,02,06,11.30
2017,07,07,02,07,11.30
2017,07,07,02,08,11.30
2017,07,07,02,09,11.30
2017,07,07,02,10,11.30
2017,07,07,02,11,11.30
2017,07,07,02,12,11.30
2017,07,07,02,13,11.30
2017,07,07,02,14,11.30
2017,07,07,02,15,11.20
2017,07,07,02,16,11.20
2017,07,07,02,17,11.20
2017,07,07,02,18,11.20
2017,07,07,02,19,11.20
2017,07,07,02,20,11.20
2017,07,07,02,21,11.20
2017,07,07,02,22,11.20
2017,07,07,02,23,11.20
2017,07,07,02,24,11.20
2017,07,07,02,25,11.20
2017,07,07,02,26,11.20
2017,07,07,02,27,11.20
2017,07,07,02,28,11.30
2017,07,07,02,29,11.30
2017,07,07,02,30,11.30
2017,07,07,02,31,11.30
2017,07,07,02,32,11.30
2017,07,07,02,33,11.30
2017,07,07,02,34,11.30
2017,07,07,02,35,11.30
2017,07,07,02,36,11.30
2017,07,07,02,37,11.30
2017,07,07,02,38,11.30
2017,07,07,02,39,11.30
2017,07,07,02,40,11.30
2017,07,07,02,41,11.30
2017,07,07,02,42,11.20
2017,07,07,02,43,11.20
2017,07,07,02,44,11.20
2017,07,07,02,45,11.20
2017,07,07,02,46,11.20
2017,07,07,02,47,11.10
2017,07,07,02,48,11.10
2017,07,07,02,49,11.10
2017,07,07,02,50,11.10
2017,07,07,02,51,11.10
2017,07,07,02,52,11.10
2017,07,07,02,53,11.10
2017,07,07,02,54,11.10
2017,07,07,02,55,11.10
2017,07,07,02,56,11.10
2017,07,07,02,57,11.10
2017,07,07,02,58,11.10
2017,07,07,02,59,11.10
2017,07,07,03,00,11.20
2017,07,07,03,01,11.20
2017,07,07,03,02,11.20
2017,07,07,03,03,11.20
2017,07,07,03,04,11.20
2017,07,07,03,05,11.20
2017,07,07,03,06,11.20
2017,07,07,03,07,11.20
2017,07,07,03,08,11.10
2017,07,07,03,09,11.10
2017,07,07,03,10,11.10
2017,07,07,03,11,11.10
2017,07,07,03,12,11.10
2017,07,07,03,13,11.10
2017,07,07,03,14,11.10
2017,07,07,03,15,11.10
2017,07,07,03,16,11.00
2017,07,07,03,17,11.00
2017,07,07,03,18,11.00
2017,07,07,03,19,11.00
2017,07,07,03,20,11.00
2017,07,07,03,21,11.00
2017,07,07,03,22,11.00
2017,07,07,03,23,11.00
2017,07,07,03,24,10.90
2017,07,07,03,25,10.90
2017,07,07,03,26,10.90
2017,07,07,03,27,10.90
2017,07,07,03,28,10.80
2017,07,07,03,29,10.80
2017,07,07,03,30,10.80
2017,07,07,03,31,10.80
2017,07,07,03,32,10.80
2017,07,07,03,33,10.80
2017,07,07,03,34,10.80
2017,07,07,03,35,10.80
2017,07,07,03,36,10.80
2017,07,07,03,37,10.80
2017,07,07,03,38,10.80
2017,07,07,03,39,10.80
2017,07,07,03,40,10.80
2017,07,07,03,41,10.80
2017,07,07,03,42,10.70
2017,07,07,03,43,10.70
2017,07,07,03,44,10.70
2017,07,07,03,45,10.70
2017,07,07,03,46,10.70
2017,07,07,03,47,10.70
2017,07,07,03,48,10.70
2017,07,07,03,49,10.80
2017,07,07,03,50,10.80
2017,07,07,03,51,10.80
2017,07,07,03,52,10.80
2017,07,07,03,53,10.80
2017,07,07,03,54,10.80
2017,07,07,03,55,10.70
2017,07,07,03,56,10.70
2017,07,07,03,57,10.70
2017,07,07,03,58,10.70
2017,07,07,03,59,10.70
2017,07,07,04,00,10.70
2017,07,07,04,01,10.70
2017,07,07,04,02,10.60
2017,07,07,04,03,10.60
2017,07,07,04,04,10.60
2017,07,07,04,05,10.60
2017,07,07,04,06,10.60
2017,07,07,04,07,10.60
2017,07,07,04,08,10.60
2017,07,07,04,09,10.60
2017,07,07,04,10,10.60
2017,07,07,04,11,10.60
2017,07,07,04,12,10.60
2017,07,07,04,13,10.60
2017,07,07,04,14,10.60
2017,07,07,04,15,10.60
2017,07,07,04,16,10.60
2017,07,07,04,17,10.60
2017,07,07,04,18,10.60
2017,07,07,04,19,10.50
2017,07,07,04,20,10.50
2017,07,07,04,21,10.50
2017,07,07,04,22,10.50
2017,07,07,04,23,10.50
2017,07,07,04,24,10.50
2017,07,07,04,25,10.50
2017,07,07,04,26,10.50
2017,07,07,04,27,10.50
2017,07,07,04,28,10.50
2017,07,07,04,29,10.50
2017,07,07,04,30,10.50
2017,07,07,04,31,10.50
2017,07,07,04,32,10.60
2017,07,07,04,33,10.60
2017,07,07,04,34,10.60
2017,07,07,04,35,10.60
2017,07,07,04,36,10.60
2017,07,07,04,37,10.60
2017,07,07,04,38,10.60
2017,07,07,04,39,10.60
2017,07,07,04,40,10.60
2017,07,07,04,41,10.50
2017,07,07,04,42,10.50
2017,07,07,04,43,10.50
2017,07,07,04,44,10.50
2017,07,07,04,45,10.50
2017,07,07,04,46,10.40
2017,07,07,04,47,10.40
2017,07,07,04,48,10.40
2017,07,07,04,49,10.40
2017,07,07,04,50,10.40
2017,07,07,04,51,10.40
2017,07,07,04,52,10.40
2017,07,07,04,53,10.40
2017,07,07,04,54,10.40
2017,07,07,04,55,10.50
2017,07,07,04,56,10.50
2017,07,07,04,57,10.60
2017,07,07,04,58,10.60
2017,07,07,04,59,10.60
2017,07,07,05,00,10.60
2017,07,07,05,01,10.60
2017,07,07,05,02,10.60
2017,07,07,05,03,10.60
2017,07,07,05,04,10.60
2017,07,07,05,05,10.60
2017,07,07,05,06,10.60
2017,07,07,05,07,10.60
2017,07,07,05,08,10.60
2017,07,07,05,09,10.60
2017,07,07,05,10,10.60
2017,07,07,05,11,10.60
2017,07,07,05,12,10.60
2017,07,07,05,13,10.60
2017,07,07,05,14,10.60
2017,07,07,05,15,10.50
2017,07,07,05,16,10.50
2017,07,07,05,17,10.50
2017,07,07,05,18,10.50
2017,07,07,05,19,10.50
2017,07,07,05,20,10.40
2017,07,07,05,21,10.40
2017,07,07,05,22,10.40
2017,07,07,05,23,10.40
2017,07,07,05,24,10.40
2017,07,07,05,25,10.40
2017,07,07,05,26,10.40
2017,07,07,05,27,10.40
2017,07,07,05,28,10.40
2017,07,07,05,29,10.40
2017,07,07,05,30,10.40
2017,07,07,05,31,10.40
2017,07,07,05,32,10.40
2017,07,07,05,33,10.40
2017,07,07,05,34,10.40
2017,07,07,05,35,10.40
2017,07,07,05,36,10.40
2017,07,07,05,37,10.40
2017,07,07,05,38,10.50
2017,07,07,05,39,10.50
2017,07,07,05,40,10.50
2017,07,07,05,41,10.50
2017,07,07,05,42,10.60
2017,07,07,05,43,10.60
2017,07,07,05,44,10.60
2017,07,07,05,45,10.60
2017,07,07,05,46,10.60
2017,07,07,05,47,10.60
2017,07,07,05,48,10.60
2017,07,07,05,49,10.70
2017,07,07,05,50,10.60
2017,07,07,05,51,10.60
2017,07,07,05,52,10.60
2017,07,07,05,53,10.60
2017,07,07,05,54,10.60
2017,07,07,05,55,10.70
2017,07,07,05,56,10.70
2017,07,07,05,57,10.70
2017,07,07,05,58,10.70
2017,07,07,05,59,10.70
2017,07,07,06,00,10.80
2017,07,07,06,01,10.80
2017,07,07,06,02,10.80
2017,07,07,06,03,10.80
2017,07,07,06,04,10.80
2017,07,07,06,05,10.80
2017,07,07,06,06,10.90
2017,07,07,06,07,10.90
2017,07,07,06,08,11.00
2017,07,07,06,09,11.00
2017,07,07,06,10,11.10
2017,07,07,06,11,11.10
2017,07,07,06,12,11.10
2017,07,07,06,13,11.20
2017,07,07,06,14,11.20
2017,07,07,06,15,11.20
2017,07,07,06,16,11.20
2017,07,07,06,17,11.30
2017,07,07,06,18,11.30
2017,07,07,06,19,11.30
2017,07,07,06,20,11.30
2017,07,07,06,21,11.40
2017,07,07,06,22,11.40
2017,07,07,06,23,11.40
2017,07,07,06,24,11.40
2017,07,07,06,25,11.50
2017,07,07,06,26,11.50
2017,07,07,06,27,11.60
2017,07,07,06,28,11.60
2017,07,07,06,29,11.60
2017,07,07,06,30,11.70
2017,07,07,06,31,11.70
2017,07,07,06,32,11.70
2017,07,07,06,33,11.80
2017,07,07,06,34,11.80
2017,07,07,06,35,11.80
2017,07,07,06,36,11.90
2017,07,07,06,37,11.90
2017,07,07,06,38,11.90
2017,07,07,06,39,11.90
2017,07,07,06,40,11.90
2017,07,07,06,41,12.00
2017,07,07,06,42,12.00
2017,07,07,06,43,12.00
2017,07,07,06,44,12.10
2017,07,07,06,45,12.10
2017,07,07,06,46,12.10
2017,07,07,06,47,12.20
2017,07,07,06,48,12.20
2017,07,07,06,49,12.20
2017,07,07,06,50,12.30
2017,07,07,06,51,12.30
2017,07,07,06,52,12.30
2017,07,07,06,53,12.40
2017,07,07,06,54,12.40
2017,07,07,06,55,12.50
2017,07,07,06,56,12.50
2017,07,07,06,57,12.60
2017,07,07,06,58,12.70
2017,07,07,06,59,12.80
2017,07,07,07,00,12.80
2017,07,07,07,01,12.90
2017,07,07,07,02,12.90
2017,07,07,07,03,13.00
2017,07,07,07,04,13.00
2017,07,07,07,05,13.00
2017,07,07,07,06,13.10
2017,07,07,07,07,13.10
2017,07,07,07,08,13.10
2017,07,07,07,09,13.10
2017,07,07,07,10,13.10
2017,07,07,07,11,13.10
2017,07,07,07,12,13.10
2017,07,07,07,13,13.20
2017,07,07,07,14,13.20
2017,07,07,07,15,13.20
2017,07,07,07,16,13.20
2017,07,07,07,17,13.20
2017,07,07,07,18,13.30
2017,07,07,07,19,13.30
2017,07,07,07,20,13.30
2017,07,07,07,21,13.40
2017,07,07,07,22,13.40
2017,07,07,07,23,13.40
2017,07,07,07,24,13.50
2017,07,07,07,25,13.50
2017,07,07,07,26,13.50
2017,07,07,07,27,13.50
2017,07,07,07,28,13.50
2017,07,07,07,29,13.50
2017,07,07,07,30,13.50
2017,07,07,07,31,13.50
2017,07,07,07,32,13.40
2017,07,07,07,33,13.50
2017,07,07,07,34,13.50
2017,07,07,07,35,13.50
2017,07,07,07,36,13.40
2017,07,07,07,37,13.40
2017,07,07,07,38,13.40
2017,07,07,07,39,13.40
2017,07,07,07,40,13.40
2017,07,07,07,41,13.40
2017,07,07,07,42,13.40
2017,07,07,07,43,13.40
2017,07,07,07,44,13.40
2017,07,07,07,45,13.40
2017,07,07,07,46,13.40
2017,07,07,07,47,13.40
2017,07,07,07,48,13.40
2017,07,07,07,49,13.40
2017,07,07,07,50,13.40
2017,07,07,07,51,13.50
2017,07,07,07,52,13.50
2017,07,07,07,53,13.50
2017,07,07,07,54,13.60
2017,07,07,07,55,13.60
2017,07,07,07,56,13.70
2017,07,07,07,57,13.80
2017,07,07,07,58,13.90
2017,07,07,07,59,14.00
2017,07,07,08,00,14.00
2017,07,07,08,01,14.10
2017,07,07,08,02,14.10
2017,07,07,08,03,14.10
2017,07,07,08,04,14.10
2017,07,07,08,05,14.10
2017,07,07,08,06,14.10
2017,07,07,08,07,14.10
2017,07,07,08,08,14.10
2017,07,07,08,09,14.10
2017,07,07,08,10,14.20
2017,07,07,08,11,14.20
2017,07,07,08,12,14.30
2017,07,07,08,13,14.30
2017,07,07,08,14,14.40
2017,07,07,08,15,14.40
2017,07,07,08,16,14.50
2017,07,07,08,17,14.50
2017,07,07,08,18,14.60
2017,07,07,08,19,14.60
2017,07,07,08,20,14.70
2017,07,07,08,21,14.80
2017,07,07,08,22,14.80
2017,07,07,08,23,14.90
2017,07,07,08,24,14.90
2017,07,07,08,25,14.90
2017,07,07,08,26,14.90
2017,07,07,08,27,14.90
2017,07,07,08,28,14.80
2017,07,07,08,29,14.80
2017,07,07,08,30,14.80
2017,07,07,08,31,14.70
2017,07,07,08,32,14.70
2017,07,07,08,33,14.70
2017,07,07,08,34,14.70
2017,07,07,08,35,14.80
2017,07,07,08,36,14.80
2017,07,07,08,37,14.70
2017,07,07,08,38,14.70
2017,07,07,08,39,14.70
2017,07,07,08,40,14.70
2017,07,07,08,41,14.70
2017,07,07,08,42,14.60
2017,07,07,08,43,14.60
2017,07,07,08,44,14.60
2017,07,07,08,45,14.60
2017,07,07,08,46,14.60
2017,07,07,08,47,14.60
2017,07,07,08,48,14.60
2017,07,07,08,49,14.60
2017,07,07,08,50,14.60
2017,07,07,08,51,14.60
2017,07,07,08,52,14.60
2017,07,07,08,53,14.60
2017,07,07,08,54,14.70
2017,07,07,08,55,14.70
2017,07,07,08,56,14.70
2017,07,07,08,57,14.80
2017,07,07,08,58,14.80
2017,07,07,08,59,14.80
2017,07,07,09,00,14.80
2017,07,07,09,01,14.80
2017,07,07,09,02,14.80
2017,07,07,09,03,14.80
2017,07,07,09,04,14.80
2017,07,07,09,05,14.90
2017,07,07,09,06,14.90
2017,07,07,09,07,15.00
2017,07,07,09,08,15.10
2017,07,07,09,09,15.10
2017,07,07,09,10,15.20
2017,07,07,09,11,15.20
2017,07,07,09,12,15.20
2017,07,07,09,13,15.20
2017,07,07,09,14,15.30
2017,07,07,09,15,15.30
2017,07,07,09,16,15.30
2017,07,07,09,17,15.30
2017,07,07,09,18,15.30
2017,07,07,09,19,15.30
2017,07,07,09,20,15.30
2017,07,07,09,21,15.30
2017,07,07,09,22,15.30
2017,07,07,09,23,15.40
2017,07,07,09,24,15.40
2017,07,07,09,25,15.40
2017,07,07,09,26,15.40
2017,07,07,09,27,15.40
2017,07,07,09,28,15.40
2017,07,07,09,29,15.40
2017,07,07,09,30,15.40
2017,07,07,09,31,15.50
2017,07,07,09,32,15.50
2017,07,07,09,33,15.60
2017,07,07,09,34,15.60
2017,07,07,09,35,15.60
2017,07,07,09,36,15.60
2017,07,07,09,37,15.60
2017,07,07,09,38,15.60
2017,07,07,09,39,15.60
2017,07,07,09,40,15.70
2017,07,07,09,41,15.70
2017,07,07,09,42,15.70
2017,07,07,09,43,15.70
2017,07,07,09,44,15.70
2017,07,07,09,45,15.70
2017,07,07,09,46,15.70
2017,07,07,09,47,15.70
2017,07,07,09,48,15.70
2017,07,07,09,49,15.70
2017,07,07,09,50,15.70
2017,07,07,09,51,15.80
2017,07,07,09,52,15.80
2017,07,07,09,53,15.80
2017,07,07,09,54,15.70
2017,07,07,09,55,15.70
2017,07,07,09,56,15.60
2017,07,07,09,57,15.60
2017,07,07,09,58,15.50
2017,07,07,09,59,15.50
2017,07,07,10,00,15.50
2017,07,07,10,01,15.60
2017,07,07,10,02,15.70
2017,07,07,10,03,15.70
2017,07,07,10,04,15.80
2017,07,07,10,05,15.80
2017,07,07,10,06,15.90
2017,07,07,10,07,15.90
2017,07,07,10,08,15.90
2017,07,07,10,09,16.00
2017,07,07,10,10,16.00
2017,07,07,10,11,16.10
2017,07,07,10,12,16.10
2017,07,07,10,13,16.10
2017,07,07,10,14,16.10
2017,07,07,10,15,16.10
2017,07,07,10,16,16.20
2017,07,07,10,17,16.20
2017,07,07,10,18,16.20
2017,07,07,10,19,16.20
2017,07,07,10,20,16.30
2017,07,07,10,21,16.30
2017,07,07,10,22,16.20
2017,07,07,10,23,16.20
2017,07,07,10,24,16.20
2017,07,07,10,25,16.10
2017,07,07,10,26,16.10
2017,07,07,10,27,16.20
2017,07,07,10,28,16.30
2017,07,07,10,29,16.30
2017,07,07,10,30,16.30
2017,07,07,10,31,16.30
2017,07,07,10,32,16.20
2017,07,07,10,33,16.30
2017,07,07,10,34,16.30
2017,07,07,10,35,16.30
2017,07,07,10,36,16.30
2017,07,07,10,37,16.20
2017,07,07,10,38,16.20
2017,07,07,10,39,16.20
2017,07,07,10,40,16.20
2017,07,07,10,41,16.20
2017,07,07,10,42,16.20
2017,07,07,10,43,16.20
2017,07,07,10,44,16.20
2017,07,07,10,45,16.20
2017,07,07,10,46,16.20
2017,07,07,10,47,16.20
2017,07,07,10,48,16.10
2017,07,07,10,49,16.10
2017,07,07,10,50,16.10
2017,07,07,10,51,16.10
2017,07,07,10,52,16.10
2017,07,07,10,53,16.10
2017,07,07,10,54,16.10
2017,07,07,10,55,16.10
2017,07,07,10,56,16.10
2017,07,07,10,57,16.10
2017,07,07,10,58,16.00
2017,07,07,10,59,16.00
2017,07,07,11,00,15.90
2017,07,07,11,01,15.90
2017,07,07,11,02,15.90
2017,07,07,11,03,16.00
2017,07,07,11,04,16.00
2017,07,07,11,05,16.10
2017,07,07,11,06,16.20
2017,07,07,11,07,16.20
2017,07,07,11,08,16.20
2017,07,07,11,09,16.10
2017,07,07,11,10,16.00
2017,07,07,11,11,16.00
2017,07,07,11,12,16.00
2017,07,07,11,13,16.00
2017,07,07,11,14,16.00
2017,07,07,11,15,16.00
2017,07,07,11,16,16.10
2017,07,07,11,17,16.10
2017,07,07,11,18,16.20
2017,07,07,11,19,16.20
2017,07,07,11,20,16.20
2017,07,07,11,21,16.20
2017,07,07,11,22,16.30
2017,07,07,11,23,16.30
2017,07,07,11,24,16.40
2017,07,07,11,25,16.40
2017,07,07,11,26,16.40
2017,07,07,11,27,16.40
2017,07,07,11,28,16.40
2017,07,07,11,29,16.40
2017,07,07,11,30,16.40
2017,07,07,11,31,16.40
2017,07,07,11,32,16.40
2017,07,07,11,33,16.50
2017,07,07,11,34,16.50
2017,07,07,11,35,16.50
2017,07,07,11,36,16.50
2017,07,07,11,37,16.40
2017,07,07,11,38,16.40
2017,07,07,11,39,16.30
2017,07,07,11,40,16.30
2017,07,07,11,41,16.20
2017,07,07,11,42,16.20
2017,07,07,11,43,16.20
2017,07,07,11,44,16.10
2017,07,07,11,45,16.10
2017,07,07,11,46,16.00
2017,07,07,11,47,16.00
2017,07,07,11,48,15.90
2017,07,07,11,49,15.90
2017,07,07,11,50,15.90
2017,07,07,11,51,15.90
2017,07,07,11,52,16.00
2017,07,07,11,53,16.00
2017,07,07,11,54,16.00
2017,07,07,11,55,16.00
2017,07,07,11,56,16.00
2017,07,07,11,57,16.00
2017,07,07,11,58,16.00
2017,07,07,11,59,16.00
2017,07,07,12,00,16.00
2017,07,07,12,01,16.00
2017,07,07,12,02,16.10
2017,07,07,12,03,16.10
2017,07,07,12,04,16.20
2017,07,07,12,05,16.30
2017,07,07,12,06,16.40
2017,07,07,12,07,16.40
2017,07,07,12,08,16.50
2017,07,07,12,09,16.50
2017,07,07,12,10,16.60
2017,07,07,12,11,16.60
2017,07,07,12,12,16.70
2017,07,07,12,13,16.80
2017,07,07,12,14,16.80
2017,07,07,12,15,16.80
2017,07,07,12,16,16.80
2017,07,07,12,17,16.80
2017,07,07,12,18,16.70
2017,07,07,12,19,16.70
2017,07,07,12,20,16.70
2017,07,07,12,21,16.60
2017,07,07,12,22,16.60
2017,07,07,12,23,16.50
2017,07,07,12,24,16.30
2017,07,07,12,25,16.30
2017,07,07,12,26,16.20
2017,07,07,12,27,16.10
2017,07,07,12,28,16.00
2017,07,07,12,29,15.90
2017,07,07,12,30,15.90
2017,07,07,12,31,15.90
2017,07,07,12,32,15.80
2017,07,07,12,33,15.80
2017,07,07,12,34,15.80
2017,07,07,12,35,15.80
2017,07,07,12,36,15.80
2017,07,07,12,37,15.80
2017,07,07,12,38,15.80
2017,07,07,12,39,15.80
2017,07,07,12,40,15.90
2017,07,07,12,41,16.00
2017,07,07,12,42,16.10
2017,07,07,12,43,16.20
2017,07,07,12,44,16.20
2017,07,07,12,45,16.20
2017,07,07,12,46,16.30
2017,07,07,12,47,16.30
2017,07,07,12,48,16.30
2017,07,07,12,49,16.30
2017,07,07,12,50,16.30
2017,07,07,12,51,16.30
2017,07,07,12,52,16.40
2017,07,07,12,53,16.50
2017,07,07,12,54,16.50
2017,07,07,12,55,16.60
2017,07,07,12,56,16.70
2017,07,07,12,57,16.80
2017,07,07,12,58,16.80
2017,07,07,12,59,16.90
2017,07,07,13,00,17.00
2017,07,07,13,01,17.10
2017,07,07,13,02,17.20
2017,07,07,13,03,17.30
2017,07,07,13,04,17.40
2017,07,07,13,05,17.50
2017,07,07,13,06,17.60
2017,07,07,13,07,17.70
2017,07,07,13,08,17.90
2017,07,07,13,09,18.00
2017,07,07,13,10,18.10
2017,07,07,13,11,18.20
2017,07,07,13,12,18.20
2017,07,07,13,13,18.30
2017,07,07,13,14,18.40
2017,07,07,13,15,18.40
2017,07,07,13,16,18.40
2017,07,07,13,17,18.30
2017,07,07,13,18,18.30
2017,07,07,13,19,18.30
2017,07,07,13,20,18.20
2017,07,07,13,21,18.10
2017,07,07,13,22,18.10
2017,07,07,13,23,17.90
2017,07,07,13,24,17.80
2017,07,07,13,25,17.60
2017,07,07,13,26,17.40
2017,07,07,13,27,17.20
2017,07,07,13,28,16.90
2017,07,07,13,29,16.80
2017,07,07,13,30,16.70
2017,07,07,13,31,16.60
2017,07,07,13,32,16.50
2017,07,07,13,33,16.40
2017,07,07,13,34,16.50
2017,07,07,13,35,16.50
2017,07,07,13,36,16.60
2017,07,07,13,37,16.60
2017,07,07,13,38,16.50
2017,07,07,13,39,16.60
2017,07,07,13,40,16.60
2017,07,07,13,41,16.60
2017,07,07,13,42,16.70
2017,07,07,13,43,16.70
2017,07,07,13,44,16.80
2017,07,07,13,45,16.90
2017,07,07,13,46,16.90
2017,07,07,13,47,17.00
2017,07,07,13,48,17.10
2017,07,07,13,49,17.20
2017,07,07,13,50,17.20
2017,07,07,13,51,17.30
2017,07,07,13,52,17.30
2017,07,07,13,53,17.30
2017,07,07,13,54,17.30
2017,07,07,13,55,17.30
2017,07,07,13,56,17.30
2017,07,07,13,57,17.30
2017,07,07,13,58,17.30
2017,07,07,13,59,17.30
2017,07,07,14,00,17.30
2017,07,07,14,01,17.30
2017,07,07,14,02,17.20
2017,07,07,14,03,17.20
2017,07,07,14,04,17.20
2017,07,07,14,05,17.10
2017,07,07,14,06,17.00
2017,07,07,14,07,16.90
2017,07,07,14,08,16.90
2017,07,07,14,09,16.90
2017,07,07,14,10,16.80
2017,07,07,14,11,16.80
2017,07,07,14,12,16.80
2017,07,07,14,13,16.90
2017,07,07,14,14,16.90
2017,07,07,14,15,16.90
2017,07,07,14,16,17.00
2017,07,07,14,17,17.10
2017,07,07,14,18,17.20
2017,07,07,14,19,17.20
2017,07,07,14,20,17.30
2017,07,07,14,21,17.30
2017,07,07,14,22,17.40
2017,07,07,14,23,17.40
2017,07,07,14,24,17.40
2017,07,07,14,25,17.50
2017,07,07,14,26,17.60
2017,07,07,14,27,17.70
2017,07,07,14,28,17.90
2017,07,07,14,29,18.00
2017,07,07,14,30,18.10
2017,07,07,14,31,18.20
2017,07,07,14,32,18.30
2017,07,07,14,33,18.30
2017,07,07,14,34,18.40
2017,07,07,14,35,18.40
2017,07,07,14,36,18.50
2017,07,07,14,37,18.50
2017,07,07,14,38,18.50
2017,07,07,14,39,18.60
2017,07,07,14,40,18.70
2017,07,07,14,41,18.80
2017,07,07,14,42,18.90
2017,07,07,14,43,19.00
2017,07,07,14,44,19.10
2017,07,07,14,45,19.20
2017,07,07,14,46,19.40
2017,07,07,14,47,19.50
2017,07,07,14,48,19.60
2017,07,07,14,49,19.70
2017,07,07,14,50,19.80
2017,07,07,14,51,19.90
2017,07,07,14,52,20.00
2017,07,07,14,53,20.10
2017,07,07,14,54,20.20
2017,07,07,14,55,20.30
2017,07,07,14,56,20.40
2017,07,07,14,57,20.50
2017,07,07,14,58,20.60
2017,07,07,14,59,20.70
2017,07,07,15,00,20.60
2017,07,07,15,01,20.50
2017,07,07,15,02,20.30
2017,07,07,15,03,20.00
2017,07,07,15,04,19.80
2017,07,07,15,05,19.70
2017,07,07,15,06,19.60
2017,07,07,15,07,19.50
2017,07,07,15,08,19.40
2017,07,07,15,09,19.40
2017,07,07,15,10,19.30
2017,07,07,15,11,19.30
2017,07,07,15,12,19.20
2017,07,07,15,13,19.10
2017,07,07,15,14,19.00
2017,07,07,15,15,19.00
2017,07,07,15,16,18.90
2017,07,07,15,17,18.90
2017,07,07,15,18,18.90
2017,07,07,15,19,18.90
2017,07,07,15,20,19.00
2017,07,07,15,21,19.00
2017,07,07,15,22,19.10
2017,07,07,15,23,19.20
2017,07,07,15,24,19.20
2017,07,07,15,25,19.30
2017,07,07,15,26,19.20
2017,07,07,15,27,19.10
2017,07,07,15,28,19.00
2017,07,07,15,29,19.00
2017,07,07,15,30,19.00
2017,07,07,15,31,19.10
2017,07,07,15,32,19.10
2017,07,07,15,33,19.20
2017,07,07,15,34,19.20
2017,07,07,15,35,19.30
2017,07,07,15,36,19.30
2017,07,07,15,37,19.30
2017,07,07,15,38,19.30
2017,07,07,15,39,19.30
2017,07,07,15,40,19.30
2017,07,07,15,41,19.30
2017,07,07,15,42,19.40
2017,07,07,15,43,19.30
2017,07,07,15,44,19.30
2017,07,07,15,45,19.20
2017,07,07,15,46,19.20
2017,07,07,15,47,19.20
2017,07,07,15,48,19.10
2017,07,07,15,49,18.90
2017,07,07,15,50,18.70
2017,07,07,15,51,18.60
2017,07,07,15,52,18.50
2017,07,07,15,53,18.40
2017,07,07,15,54,18.40
2017,07,07,15,55,18.30
2017,07,07,15,56,18.30
2017,07,07,15,57,18.20
2017,07,07,15,58,18.10
2017,07,07,15,59,18.10
2017,07,07,16,00,18.10
2017,07,07,16,01,18.10
2017,07,07,16,02,18.10
2017,07,07,16,03,18.10
2017,07,07,16,04,18.10
2017,07,07,16,05,18.10
2017,07,07,16,06,18.00
2017,07,07,16,07,18.00
2017,07,07,16,08,18.10
2017,07,07,16,09,18.20
2017,07,07,16,10,18.30
2017,07,07,16,11,18.40
2017,07,07,16,12,18.50
2017,07,07,16,13,18.70
2017,07,07,16,14,18.80
2017,07,07,16,15,19.00
2017,07,07,16,16,19.30
2017,07,07,16,17,19.60
2017,07,07,16,18,19.80
2017,07,07,16,19,20.00
2017,07,07,16,20,20.30
2017,07,07,16,21,20.50
2017,07,07,16,22,20.80
2017,07,07,16,23,20.90
2017,07,07,16,24,21.10
2017,07,07,16,25,21.30
2017,07,07,16,26,21.50
2017,07,07,16,27,21.60
2017,07,07,16,28,21.70
2017,07,07,16,29,21.80
2017,07,07,16,30,21.90
2017,07,07,16,31,22.00
2017,07,07,16,32,22.10
2017,07,07,16,33,22.20
2017,07,07,16,34,22.40
2017,07,07,16,35,22.40
2017,07,07,16,36,22.50
2017,07,07,16,37,22.60
2017,07,07,16,38,22.60
2017,07,07,16,39,22.60
2017,07,07,16,40,22.60
2017,07,07,16,41,22.60
2017,07,07,16,42,22.60
2017,07,07,16,43,22.60
2017,07,07,16,44,22.60
2017,07,07,16,45,22.60
2017,07,07,16,46,22.60
2017,07,07,16,47,22.60
2017,07,07,16,48,22.50
2017,07,07,16,49,22.40
2017,07,07,16,50,22.30
2017,07,07,16,51,22.30
2017,07,07,16,52,22.30
2017,07,07,16,53,22.20
2017,07,07,16,54,22.20
2017,07,07,16,55,22.20
2017,07,07,16,56,22.20
2017,07,07,16,57,22.30
2017,07,07,16,58,22.30
2017,07,07,16,59,22.40
2017,07,07,17,00,22.40
2017,07,07,17,01,22.40
2017,07,07,17,02,22.40
2017,07,07,17,03,22.40
2017,07,07,17,04,22.40
2017,07,07,17,05,22.40
2017,07,07,17,06,22.40
2017,07,07,17,07,22.40
2017,07,07,17,08,22.50
2017,07,07,17,09,22.50
2017,07,07,17,10,22.60
2017,07,07,17,11,22.70
2017,07,07,17,12,22.70
2017,07,07,17,13,22.80
2017,07,07,17,14,22.80
2017,07,07,17,15,22.80
2017,07,07,17,16,22.80
2017,07,07,17,17,22.90
2017,07,07,17,18,22.90
2017,07,07,17,19,22.90